This demonstration page uses our WeatherBlox Daily Observations layout. Learn more.

Left ArrowRight Arrow

-33.8178, 151.00348

Hourly Observations for January 4, 2015

Temp ( °F °C ) Dew Point ( °F °C ) Humidity (%) Winds ( mph kmh ) Pressure ( in mb ) Visibility ( mi km ) Precip ( " mm )
12:00 am 00:00 Mostly Clear 75 24 70 21 83 83 NNE 18 30 30.00 1016 30 48 N/A
12:30 am 00:30 Mostly Clear 75 24 70 21 83 83 NNE 16 26 30.00 1016 30 48 N/A
1:00 am 01:00 Mostly Clear 77 25 70 21 79 79 N 17 28 30.00 1016 30 48 N/A
1:30 am 01:30 Mostly Clear 77 25 70 21 79 79 NNE 12 19 30.00 1016 30 48 N/A
2:00 am 02:00 Mostly Clear 75 24 70 21 83 83 NE 13 20 29.97 1015 30 48 N/A
2:30 am 02:30 Mostly Clear 75 24 70 21 83 83 NE 14 22 29.97 1015 7 11 N/A
3:00 am 03:00 Mostly Clear 75 24 70 21 83 83 NE 13 20 29.97 1015 7 11 N/A
3:30 am 03:30 Mostly Clear 75 24 70 21 83 83 NNE 12 19 29.94 1014 7 11 N/A
4:00 am 04:00 Mostly Clear 73 23 70 21 89 89 NNE 12 19 29.97 1015 7 11 N/A
4:30 am 04:30 Mostly Clear 73 23 70 21 89 89 NNE 13 20 29.97 1015 7 11 N/A
5:00 am 05:00 Mostly Clear 73 23 70 21 89 89 NNE 13 20 29.97 1015 7 11 N/A
5:30 am 05:30 Mostly Clear 73 23 68 20 83 83 NNE 13 20 29.97 1015 30 48 N/A
6:00 am 06:00 Mostly Sunny 73 23 70 21 89 89 NNE 13 20 29.97 1015 30 48 N/A
6:30 am 06:30 Mostly Sunny 75 24 68 20 78 78 N 12 19 29.97 1015 30 48 N/A
7:00 am 07:00 Mostly Sunny 75 24 68 20 78 78 N 9 15 29.97 1015 30 48 N/A
7:30 am 07:30 Mostly Sunny 77 25 68 20 74 74 N 10 17 29.97 1015 30 48 N/A
8:00 am 08:00 Mostly Sunny 79 26 68 20 70 70 N 7 11 29.97 1015 30 48 N/A
8:30 am 08:30 Mostly Sunny 81 27 68 20 66 66 NW 7 11 29.97 1015 30 48 N/A
9:00 am 09:00 Mostly Sunny 82 28 68 20 62 62 WNW 8 13 29.97 1015 30 48 N/A
9:30 am 09:30 Mostly Sunny 82 28 68 20 62 62 NE 3 6 29.97 1015 30 48 N/A
10:00 am 10:00 Mostly Sunny 86 30 68 20 55 55 SSE 7 11 29.97 1015 30 48 N/A
10:30 am 10:30 Mostly Sunny 88 31 68 20 52 52 SE 8 13 29.97 1015 30 48 N/A
11:00 am 11:00 Mostly Sunny 88 31 68 20 52 52 ESE 10 17 29.94 1014 30 48 N/A
11:30 am 11:30 Mostly Sunny 88 31 66 19 49 49 ESE 10 17 29.94 1014 30 48 N/A
12:00 pm 12:00 Mostly Sunny 91 33 70 21 49 49 E 14 22 29.94 1014 30 48 N/A
12:30 pm 12:30 Mostly Sunny 91 33 70 21 49 49 E 13 20 29.91 1013 30 48 N/A
1:00 pm 13:00 Mostly Sunny 90 32 68 20 49 49 NE 15 24 29.91 1013 7 11 N/A
1:30 pm 13:30 Mostly Sunny 88 31 68 20 52 52 NE 16 26 29.91 1013 7 11 N/A
2:00 pm 14:00 Mostly Sunny 88 31 68 20 52 52 ENE 20 31 29.88 1012 7 11 N/A
2:30 pm 14:30 Mostly Sunny 90 32 66 19 46 46 NE 22 35 29.88 1012 7 11 N/A
3:00 pm 15:00 Partly Cloudy with Showers Nearby 86 30 66 19 52 52 NE 21 33 29.88 1012 30 48 N/A
3:30 pm 15:30 Partly Cloudy with Showers Nearby 88 31 68 20 52 52 NE 20 31 29.85 1011 30 48 N/A
4:00 pm 16:00 Partly Cloudy with Showers Nearby 84 29 68 20 58 58 NNE 20 31 29.85 1011 30 48 N/A
4:30 pm 16:30 Partly Cloudy with Thunderstorms 82 28 68 20 62 62 NE 22 35 29.85 1011 30 48 N/A
5:00 pm 17:00 Windy with Rain Showers and Scattered Storms 82 28 66 19 58 58 NE 24 39 29.85 1011 30 48 N/A
5:30 pm 17:30 Mostly Sunny 82 28 66 19 58 58 NE 21 33 29.88 1012 7 11 N/A
6:00 pm 18:00 Windy with Rain Showers and Scattered Storms 81 27 66 19 62 62 NNE 21 33 29.88 1012 30 48 N/A
6:30 pm 18:30 Mostly Sunny 81 27 64 18 58 58 NNE 16 26 29.91 1013 7 11 N/A
7:00 pm 19:00 Mostly Cloudy with Light Showers and Scattered Storms 81 27 66 19 62 62 NE 12 19 29.91 1013 30 48 N/A
7:25 pm 19:25 Mostly Cloudy 77 25 68 20 74 74 SSW 22 35 29.97 1015 30 48 N/A
7:30 pm 19:30 Mostly Cloudy 75 24 68 20 78 78 SSW 26 43 29.97 1015 30 48 N/A
7:42 pm 19:42 Mostly Cloudy 73 23 68 20 83 83 SSW 31 50 30.00 1016 30 48 N/A
8:00 pm 20:00 Windy with Rain Showers and Scattered Storms 73 23 68 20 83 83 S 33 54 30.00 1016 30 48 N/A
8:30 pm 20:30 Mostly Cloudy 73 23 66 19 78 78 S 26 43 30.03 1017 30 48 N/A
9:00 pm 21:00 Mostly Cloudy 72 22 66 19 83 83 S 25 41 30.03 1017 30 48 N/A
9:30 pm 21:30 Mostly Cloudy 72 22 68 20 88 88 S 21 33 30.06 1018 30 48 N/A
10:00 pm 22:00 Mostly Cloudy 72 22 68 20 88 88 SSW 21 33 30.06 1018 30 48 N/A
10:30 pm 22:30 Mostly Cloudy 72 22 68 20 88 88 S 20 31 30.06 1018 30 48 N/A
11:00 pm 23:00 Mostly Cloudy with Showers 72 22 68 20 88 88 S 22 35 30.09 1019 3 5 N/A
11:30 pm 23:30 Mostly Cloudy with Showers 72 22 66 19 83 83 S 20 31 30.06 1018 3 5 N/A

Powered by Vaisala Xweather